Погода в Томпе

Поиск расширенной информации на нашем сайте:

Полезная информация:

Новости сайта



02.01.2020
Опубликован Долгосрочный прогноз погоды по городам России и ближнего зарубежья на январь 2020 года.
Карты: Прогноз на январь и февраль 2020 года, Сравнение прогнозируемой аномалии приземной температуры воздуха на январь 2020 года по разным моделям.




Погода в Томпе - сегодня

Время (UTC), дата Ветер
(°,м/с) 
Видим.   Явления Облачность Т
(°С)
Тd
(°С)
f(%) Тe
(°С)
Pmin
(гПа)
dP
(гПа)
Po
(мм)
O2
(г/м3)
Тmin Tmax R s Состояние
почвы
18 25.11.20 040 (СВ) н/о    ясно 
-12.6 -13.9 90 -15  1043.1  0.1  736  312           
00 26.11.20 030 (СВ) 20000 м    ясно 
-13.1 -17.4 70 -15  1043  0.3  736  313  -13.2      равномерный
сухой снег
100% 
06 26.11.20 050 (СВ) 20000 м    4/3 600 м верхняя 
[Sc|Ci fib]
-5.9 -15.9 45 -7  1041.3  -0.7  736  304           
12 26.11.20 030 (СВ) н/о    3/0 верхняя 
[Cc]
-12.2 -16.5 70 -14  1044.4  1.1  737  312    -7.3       
18 26.11.20 040 (СВ) н/о    8/8 600 м кучево-дожд. 
[Cb cap]
-13.4 -17.7 70 -16  1045.6  0.5  738  314           
00 27.11.20 040 (СВ) н/о    10/10 600 м кучево-дожд. 
[Cb cap]
-12.9 -18 66 -15  1045.6  0.1  738  314  -14.6      равномерный
сухой снег
100% 
06 27.11.20 050 (СВ) 20000 м    ясно 600 м 
-7.5 -18.6 41 -9  1043.2  -1.3  737  307           
12 27.11.20 040 (СВ) н/о    ясно 
-11.1 -18.4 55 -13  1043.2  -0.5  737  311    -7.5       
18 27.11.20 040 (СВ) н/о  слаб. снег  10/0 средняя 
[As trans]
-11 -13.8 80 -13  1041.2  -0.8  735  310           
00 28.11.20 040 (СВ) 20000 м  слаб. снег  10/3 600 м средняя 
[Sc|As op]
-9.6 -13.2 75 -11  1038.4  -0.9  734  308  -12    0.9  равномерный
сухой снег
100% 
06 28.11.20 050 (СВ) 20000 м  слаб. снег  9/3 600 м средняя, верхняя 
[Sc|As op|Ci fib]
-6 -9.9 74 -6  1035.6  -1.2  732  303           
12 28.11.20 тихо ()   н/о  слаб. снег  10/10 600 м 
[Ns]
-6.3 -10.2 74 -6  1035.3  0.1  732  303    -6  0.9     
00 29.11.20 030 (СВ) н/о  {снег}  10/10 600 м 
[Sc]
-13.2 -15.9 80 -15  1037.4  0.3  732  311  -13.1    0.9  равномерный
сухой снег
100% 
06 29.11.20 030 (СВ) 20000 м    9/5 600 м верхняя 
[St|Ci fib]
-7.7 -13.2 65 -7  1036.1  -0.5  732  305           
18 29.11.20 030 (СВ) н/о    8/8 600 м 
[Sc]
-13.6 -17.9 70 -16  1038.9  -0.3  733  312           
00 30.11.20 040 (СВ) 20000 м    10/10 600 м 
[Sc]
-13.4 -17.7 70 -16  1038  -0.2  733  312  -15.7      равномерный
сухой снег
100% 
06 30.11.20 050 (СВ) 20000 м    9/4 600 м средняя, верхняя 
[Sc|Ac As|Ci fib]
-8.5 -15 59 -10  1036.1  -0.7  725  303           
12 30.11.20 220 (ЮЗ) 31  н/о  слаб. снег  10/3 600 м верхняя 
[Sc|Cs]
-17.3 -18.7 89 -32  1038.3  -0.7  726  314    -8.5       
18 30.11.20 040 (СВ) н/о  {снег}  9/3 600 м верхняя 
[Sc|Cs]
-12.8 -14.8 85 -13  1036.7  732  311           
00 01.12.20 030 (СВ) н/о  {снег}  10/3 600 м средняя 
[Sc|As trans]
-13 -14.3 90 -13  1036.7  732  311  -13.3    0.0  равномерный
сухой снег
100% 
06 01.12.20 050 (СВ) 20000 м    9/9 600 м 
[Sc]
-7.3 -12.7 65 -7  1035.2  -0.4  713  296           
18 01.12.20 030 (СВ) н/о    8/8 600 м 
[Sc]
-11.6 -14.3 80 -14  1037.5  0.4  733  310           
00 02.12.20 030 (СВ) н/о    10/10 600 м 
[Sc]
-12 -14.7 80 -14  1038.6  0.4  733  310  -13.1      равномерный
сухой снег
100% 
06 02.12.20 120 (ЮВ) 20000 м    9/9 600 м 
[Sc]
-6.6 -13.2 59 -8  1038.3  719  298           
18 02.12.20 030 (СВ) н/о  {ливн. осадки}  10/10 600 м кучево-дожд. 
[Cb cap]
-8 -9.9 86 -8  1037.9  -0.7  734  305           
Время (UTC), дата Ветер
(°,м/с) 
Видим.   Явления Облачность Т
(°С)
Тd
(°С)
f(%) Тe
(°С)
Pmin
(гПа)
dP
(гПа)
Po
(мм)
O2
(г/м3)
Тmin Tmax R s Состояние
почвы

Для получения пояснительной информации подведите курсор к названию столбца.

ПОГОДА в Томпе - архив

Всё, что Вы хотите узнать о погоде в Томпе - удобно и подробно!

Выберите нужную дату (начиная с 1 января 2019* года) и нажмите кнопку "Найти".
Будут отображены архивные сводки погоды по пункту Томпа, начиная с указанной даты.


Отображать данные в формате CSV (для использования в таблицах Excel)


Внимание! Наш архив погоды предназначен исключительно для личного некоммерческого использования в познавательных целях. Если Вам необходимы официальные справки о состоянии погоды (для производственных, юридических, коммерческих и т.п. целей), обращайтесь в органы Росгидромета.

*Примечание: данная дата относится к архиву по метеостанциям СССР (Россия, СНГ, Балтия).
Архив по метеостанциям Зарубежной Европы и Азии (кроме Китая) хранится 10 дней, по другим регионам земного шара (Китай, Африка, Америка, Австралия, Океания) - 1 день.

Томпа - район местоположения метеостанции


Название, широта, долгота, высота метеостанции:
Томпа 55.1°ш. 109.8°д. 465 м над ур. моря [Российская Федерация]

Дополнительная информация

В oтличие oт бoльшинства пoгoдных сайтoв мы публикуем пoдрoбную метеoинфoрмацию в детальнoм прoфессиoнальнoм фoрмате.

Характеристики температуры и влажнoсти вoздуха измеряются на высoте 2 м в тени вдали oт зданий и деревьев.
Скoрoсть ветра измеряется на высoте 10 м (на урoвне рoста челoвека скoрoсть ветра ниже в 1.5-2 раза). Если метеoстанция нахoдится в гoрoде или в лесу, тo скoрoсть ветра занижена на 2-4 м/с пo сравнению с oткрытым местoм. Скoрoсть ветра над акватoриями крупных рек и oзёр, а также на вершинах хoлмoв на 2-5 м/с выше, чем в oбычных услoвиях.
Атмoсфернoе давление в разных тoчках местнoсти мoжет значительнo oтличаться oт давления на метеoстанции, в зависимoсти oт услoвий рельефа (при пoдъёме на 10 м давление пoнижается примернo на 1 мм рт.ст.).